[[{"header":{"parameterUnit":"m.s-1","parameterCategory":1,"la1":30.2991,"la2":30.254,"lo1":-89.0895,"lo2":-89.0444,"dy":0.0017,"dx":0.0017,"nx":28,"ny":28,"refTime":"2024-02-04T03:00:00:Z","depth":0,"parameterNumber":2,"parameterNumberName":"U-component_of_WINDS"},"data":[0,0,0,0,0,0,0,0,0,0,0,0,0,0,0,0,0,0,0,0,0,0,0,0,0,0,0,0,0,0,0,0,0,0,0,0,0,0,0,0,0,0,0,0,0,0,0,0,0,0,0,0,0,0,0,0,0,0,-1.5633,-1.5633,0,-1.5627,-1.5627,-1.5627,-1.5587,-1.5587,-1.5586,-1.5585,-1.5579,-1.558,-1.5581,0,0,0,0,0,0,0,0,0,0,0,0,0,-1.5611,-1.5612,-1.5633,-1.5633,-1.5633,-1.5627,-1.5627,-1.5627,-1.5588,-1.5586,-1.5585,-1.5584,-1.5579,-1.558,-1.5581,0,0,0,0,0,0,0,0,0,0,0,0,0,-1.5615,-1.5612,-1.5633,-1.5613,-1.5611,-1.5627,-1.5627,-1.5627,-1.5588,-1.5586,-1.5585,-1.5584,-1.5579,-1.558,-1.5581,-1.5617,0,0,-1.5585,-1.5585,0,0,0,0,0,0,0,0,-1.5614,-1.5615,-1.5616,-1.5614,-1.5612,-1.5607,-1.5617,-1.5624,-1.5588,-1.5597,-1.5585,-1.5583,-1.559,-1.559,-1.5592,-1.5617,-1.5617,-1.5585,-1.5585,-1.5586,-1.5586,0,0,0,0,0,0,0,-1.5614,-1.5615,-1.5631,-1.5616,-1.5614,-1.5604,-1.5603,-1.5618,-1.5601,-1.5596,-1.5593,-1.5593,-1.5588,-1.5591,-1.5591,-1.5616,-1.5585,-1.5586,-1.5586,-1.5587,-1.567,-1.5671,0,0,0,0,0,0,-1.5617,-1.5616,-1.5631,-1.5631,-1.561,-1.5606,-1.5604,-1.561,-1.5601,-1.5598,-1.5594,-1.5591,-1.559,-1.559,-1.5591,-1.5632,-1.5586,-1.5587,-1.5588,-1.5668,-1.567,-1.5672,0,0,0,0,0,0,-1.5616,-1.5619,-1.5631,-1.5622,-1.5623,-1.5607,-1.5614,-1.5611,-1.5613,-1.56,-1.5596,-1.56,-1.5589,-1.559,-1.5611,-1.5631,-1.5587,-1.5588,-1.5666,-1.5669,-1.5671,-1.5715,0,0,0,0,0,0,-1.5616,-1.5619,-1.5632,-1.5623,-1.5624,-1.5651,-1.5615,-1.5611,-1.5615,-1.5611,-1.5604,-1.5602,-1.5587,-1.5609,-1.5612,-1.5632,-1.5589,-1.5664,-1.5667,-1.567,-1.5711,-1.5718,-1.5724,0,0,0,0,0,-1.5615,-1.5645,-1.5633,-1.5635,-1.564,-1.5652,-1.5653,-1.5636,-1.5617,-1.563,-1.5621,-1.5602,-1.5629,-1.5612,-1.5614,-1.5635,-1.5663,-1.5667,-1.567,-1.5708,-1.5717,-1.5724,0,0,0,0,0,0,-1.5658,-1.5644,-1.563,-1.5658,-1.5657,-1.5646,-1.5662,-1.5645,-1.565,-1.5646,-1.5624,-1.5623,-1.5647,-1.5643,-1.5625,-1.5669,-1.5642,-1.5647,-1.5671,-1.5679,-1.5685,-1.5685,-1.559,0,0,0,0,0,-1.5671,-1.5681,-1.5668,-1.5694,-1.5694,-1.5678,-1.5683,-1.5669,-1.5667,-1.5667,-1.566,-1.5659,-1.5667,-1.5672,-1.5679,-1.571,-1.5708,-1.5726,-1.5733,-1.5738,-1.5742,-1.5757,-1.5765,-1.5683,-1.5683,-1.5683,0,0,-1.5697,-1.569,-1.5699,-1.5702,-1.57,-1.5711,-1.5678,-1.5692,-1.57,-1.5669,-1.5688,-1.5683,-1.568,-1.5706,-1.5718,-1.5704,-1.5764,-1.5742,-1.5747,-1.5747,-1.5761,-1.5769,-1.5776,-1.5685,-1.5685,-1.5684,0,0,-1.5751,-1.5747,-1.5767,-1.5765,-1.5761,-1.5751,-1.5756,-1.5747,-1.5742,-1.5761,-1.5738,-1.5747,-1.5762,-1.576,-1.5762,-1.5814,-1.5796,-1.5817,-1.585,-1.5865,-1.5872,-1.5877,-1.5896,-1.5902,-1.5821,-1.5821,-1.5821,0,-1.5784,-1.58,-1.578,-1.5795,-1.5797,-1.5769,-1.579,-1.5789,-1.5788,-1.579,-1.5774,-1.5791,-1.5788,-1.5813,-1.5825,-1.5827,-1.5832,-1.5817,-1.5872,-1.5878,-1.5883,-1.59,-1.5907,-1.5823,-1.5823,-1.5823,-1.5822,0,-1.5841,-1.5852,-1.5869,-1.5868,-1.5872,-1.589,-1.5873,-1.588,-1.5866,-1.5857,-1.5876,-1.587,-1.5875,-1.588,-1.5867,-1.5903,-1.5894,-1.5876,-1.5849,-1.5894,-1.5909,-1.5916,-1.5827,-1.5826,-1.5825,-1.5825,0,0,-1.5922,-1.5909,-1.5915,-1.5914,-1.5907,-1.5916,-1.5932,-1.5936,-1.5942,-1.5942,-1.5955,-1.5967,-1.595,-1.5952,-1.5938,-1.5952,-1.5992,-1.5931,-1.5931,-1.5943,-1.6031,-1.6045,-1.6053,-1.598,-1.5982,-1.5982,-1.6031,0,-1.5973,-1.6,-1.5982,-1.6012,-1.6022,-1.5994,-1.6008,-1.6006,-1.5997,-1.6005,-1.5996,-1.6005,-1.5981,-1.5982,-1.5994,-1.5985,-1.601,-1.5981,-1.5992,-1.5993,-1.5993,-1.6061,-1.6075,-1.6122,-1.6037,-1.6038,-1.6039,0,-1.6036,-1.6038,-1.6068,-1.6059,-1.6062,-1.6075,-1.6077,-1.6084,-1.6081,-1.6074,-1.6075,-1.6058,-1.6073,-1.6046,-1.6066,-1.6047,-1.605,-1.6047,-1.6048,-1.6048,-1.6018,-1.6063,-1.6136,-1.6143,-1.6049,-1.6048,-1.6047,0,-1.6092,-1.6102,-1.6121,-1.6121,-1.611,-1.612,-1.6116,-1.6111,-1.6114,-1.6116,-1.6117,-1.6121,-1.6123,-1.6126,-1.611,-1.6092,-1.6133,-1.6105,-1.6127,-1.6128,-1.6137,-1.6136,-1.6212,-1.614,-1.614,-1.6139,-1.6139,0,-1.615,-1.617,-1.6146,-1.6158,-1.6178,-1.6158,-1.6179,-1.6172,-1.6168,-1.6178,-1.6155,-1.6165,-1.6143,-1.6151,-1.6139,-1.6157,-1.6158,-1.6153,-1.6149,-1.6155,-1.6155,-1.6156,-1.6153,-1.6141,-1.6141,-1.614,-1.614,0,-1.6216,-1.62,-1.6219,-1.6207,-1.6205,-1.6221,-1.621,-1.6221,-1.621,-1.6223,-1.6225,-1.6209,-1.6217,-1.6201,-1.6207,-1.6199,-1.6225,-1.6216,-1.6226,-1.6223,-1.6246,-1.6244,-1.6325,-1.6334,-1.6257,-1.6257,-1.6258,0,-1.6254,-1.6269,-1.6258,-1.6262,-1.6259,-1.6268,-1.627,-1.6251,-1.6255,-1.6251,-1.6262,-1.6267,-1.6271,-1.6284,-1.6273,-1.6277,-1.6269,-1.6297,-1.6269,-1.6274,-1.6268,-1.6268,-1.6269,-1.6302,-1.6303,-1.6304,-1.6305,0,-1.6324,-1.6315,-1.632,-1.6322,-1.6326,-1.6327,-1.6326,-1.6331,-1.631,-1.6316,-1.6323,-1.6325,-1.6331,-1.6336,-1.6338,-1.6334,-1.6316,-1.6313,-1.6318,-1.6324,-1.6329,-1.6326,-1.6241,-1.6311,-1.6311,-1.631,-1.631,-1.631,-1.6377,-1.6388,-1.6381,-1.6387,-1.6384,-1.6384,-1.6393,-1.6383,-1.6388,-1.6391,-1.6379,-1.6389,-1.6384,-1.6384,-1.6381,-1.6389,-1.6376,-1.6384,-1.6386,-1.6388,-1.6391,-1.6328,-1.6389,-1.6389,-1.6389,-1.6388,-1.6388,0,-1.6444,-1.6439,-1.6444,-1.6443,-1.6448,-1.643,-1.6428,-1.6433,-1.6441,-1.6438,-1.6442,-1.645,-1.6455,-1.6444,-1.6447,-1.6455,-1.6447,-1.6457,-1.6456,-1.6455,-1.6403,-1.6398,-1.6463,-1.6463,-1.6463,-1.6463,-1.6463,-1.6463,-1.648,-1.6498,-1.6488,-1.6503,-1.6498,-1.6506,-1.6507,-1.6506,-1.6503,-1.6513,-1.6517,-1.6509,-1.6503,-1.6505,-1.6509,-1.6506,-1.6508,-1.6521,-1.6515,-1.6466,-1.6459,-1.6452,-1.6447,-1.6522,-1.6522,-1.6566,-1.6566,-1.6567]},{"header":{"parameterUnit":"m.s-1","parameterCategory":1,"la1":30.2991,"la2":30.254,"lo1":-89.0895,"lo2":-89.0444,"dy":0.0017,"dx":0.0017,"nx":28,"ny":28,"refTime":"2024-02-04T03:00:00:Z","depth":0,"parameterNumber":3,"parameterNumberName":"V-component_of_WINDS"},"data":[0,0,0,0,0,0,0,0,0,0,0,0,0,0,0,0,0,0,0,0,0,0,0,0,0,0,0,0,0,0,0,0,0,0,0,0,0,0,0,0,0,0,0,0,0,0,0,0,0,0,0,0,0,0,0,0,0,0,-8.1613,-8.1613,0,-8.1643,-8.1643,-8.1644,-8.1521,-8.1517,-8.1514,-8.151,-8.1537,-8.1541,-8.1545,0,0,0,0,0,0,0,0,0,0,0,0,0,-8.1446,-8.145,-8.1613,-8.1613,-8.1614,-8.1643,-8.1643,-8.1644,-8.1521,-8.1517,-8.1513,-8.1508,-8.1535,-8.154,-8.1545,0,0,0,0,0,0,0,0,0,0,0,0,0,-8.1502,-8.1451,-8.1613,-8.1556,-8.1552,-8.1643,-8.1643,-8.1644,-8.1522,-8.1517,-8.1511,-8.1506,-8.1534,-8.154,-8.1546,-8.1692,0,0,-8.1564,-8.1567,0,0,0,0,0,0,0,0,-8.1499,-8.1508,-8.1564,-8.156,-8.1555,-8.1573,-8.1594,-8.166,-8.1524,-8.1533,-8.151,-8.1504,-8.1553,-8.1557,-8.1574,-8.1693,-8.1694,-8.1565,-8.1569,-8.1571,-8.1573,0,0,0,0,0,0,0,-8.1495,-8.1506,-8.1625,-8.1565,-8.156,-8.1528,-8.153,-8.1606,-8.1573,-8.1532,-8.1523,-8.1529,-8.1549,-8.1569,-8.1574,-8.1694,-8.1565,-8.157,-8.1574,-8.1576,-8.1936,-8.1941,0,0,0,0,0,0,-8.1499,-8.1504,-8.1624,-8.1626,-8.1513,-8.1536,-8.1538,-8.1572,-8.1572,-8.1566,-8.1533,-8.1523,-8.1561,-8.1567,-8.1575,-8.1746,-8.1571,-8.1577,-8.158,-8.193,-8.1937,-8.1943,0,0,0,0,0,0,-8.1496,-8.1511,-8.1622,-8.1562,-8.1574,-8.1544,-8.1584,-8.1576,-8.1595,-8.1573,-8.1566,-8.156,-8.1557,-8.1566,-8.1664,-8.1745,-8.158,-8.1585,-8.1923,-8.1932,-8.194,-8.2091,0,0,0,0,0,0,-8.1492,-8.1511,-8.1567,-8.1565,-8.1578,-8.1713,-8.1589,-8.158,-8.1607,-8.1593,-8.1596,-8.1591,-8.1553,-8.1656,-8.167,-8.1751,-8.159,-8.1915,-8.1927,-8.1937,-8.2078,-8.2103,-8.2125,0,0,0,0,0,-8.1486,-8.1606,-8.157,-8.1585,-8.1647,-8.1718,-8.1725,-8.1681,-8.1614,-8.1669,-8.1655,-8.1591,-8.1734,-8.1667,-8.1682,-8.1766,-8.191,-8.1924,-8.1936,-8.2068,-8.2099,-8.2125,0,0,0,0,0,0,-8.1616,-8.1605,-8.1564,-8.1688,-8.1705,-8.1697,-8.1765,-8.1715,-8.175,-8.1736,-8.1679,-8.168,-8.1789,-8.1786,-8.1712,-8.1908,-8.181,-8.1827,-8.1905,-8.1934,-8.1957,-8.1955,-8.1595,0,0,0,0,0,-8.166,-8.172,-8.1706,-8.1816,-8.1827,-8.1796,-8.1824,-8.1789,-8.1804,-8.181,-8.1803,-8.1819,-8.1867,-8.19,-8.1944,-8.2077,-8.2076,-8.2143,-8.2166,-8.2185,-8.2201,-8.2272,-8.2302,-8.1987,-8.1987,-8.1986,0,0,-8.1749,-8.1751,-8.1791,-8.1842,-8.1851,-8.1914,-8.1802,-8.1872,-8.1918,-8.182,-8.1913,-8.1909,-8.1922,-8.204,-8.2091,-8.2041,-8.2288,-8.2202,-8.2218,-8.2223,-8.2289,-8.2319,-8.2345,-8.1996,-8.1994,-8.1993,0,0,-8.1945,-8.1952,-8.2045,-8.2057,-8.2074,-8.2052,-8.2075,-8.2075,-8.2069,-8.2162,-8.2091,-8.2143,-8.2228,-8.2241,-8.2259,-8.2462,-8.2405,-8.2478,-8.26,-8.2671,-8.2696,-8.2717,-8.279,-8.2817,-8.2493,-8.2494,-8.2494,0,-8.2053,-8.2146,-8.2099,-8.2175,-8.2199,-8.2116,-8.221,-8.2224,-8.2253,-8.2271,-8.2216,-8.2322,-8.2325,-8.2445,-8.2495,-8.2512,-8.2536,-8.2477,-8.2696,-8.2717,-8.2737,-8.2806,-8.2833,-8.2502,-8.2501,-8.2501,-8.25,0,-8.2279,-8.2345,-8.2418,-8.2451,-8.2483,-8.2568,-8.2533,-8.2571,-8.2534,-8.2519,-8.2614,-8.2616,-8.2659,-8.2685,-8.2648,-8.28,-8.2769,-8.2706,-8.2607,-8.2777,-8.284,-8.2866,-8.2515,-8.2512,-8.2509,-8.2507,0,0,-8.2556,-8.2564,-8.2591,-8.2606,-8.2619,-8.2668,-8.2749,-8.2793,-8.2827,-8.285,-8.2917,-8.2992,-8.2934,-8.2955,-8.2919,-8.2981,-8.3143,-8.291,-8.2909,-8.2954,-8.3311,-8.3359,-8.339,-8.3105,-8.311,-8.3114,-8.331,0,-8.2748,-8.2888,-8.2849,-8.2989,-8.3049,-8.2972,-8.3043,-8.3058,-8.3046,-8.3094,-8.308,-8.3134,-8.3054,-8.3066,-8.3124,-8.3111,-8.3214,-8.3096,-8.3165,-8.3169,-8.3165,-8.3423,-8.3473,-8.3658,-8.3334,-8.3339,-8.3342,0,-8.299,-8.3026,-8.3173,-8.3178,-8.3201,-8.3266,-8.3304,-8.3351,-8.3367,-8.3354,-8.3379,-8.333,-8.3409,-8.3311,-8.3419,-8.334,-8.3366,-8.3364,-8.337,-8.3375,-8.3265,-8.3435,-8.3716,-8.3744,-8.338,-8.3377,-8.3375,0,-8.3178,-8.3263,-8.3362,-8.3377,-8.3385,-8.3432,-8.3437,-8.3448,-8.3477,-8.351,-8.3529,-8.357,-8.3592,-8.3625,-8.3589,-8.3521,-8.3703,-8.3601,-8.3694,-8.3695,-8.3735,-8.3733,-8.4025,-8.3753,-8.3752,-8.3752,-8.3751,0,-8.3397,-8.349,-8.3447,-8.3508,-8.361,-8.3564,-8.3666,-8.3662,-8.3672,-8.3731,-8.3666,-8.3722,-8.3671,-8.3722,-8.3694,-8.3789,-8.3799,-8.379,-8.3782,-8.3796,-8.3798,-8.3812,-8.3799,-8.3759,-8.3757,-8.3756,-8.3755,0,-8.3624,-8.3599,-8.3702,-8.3702,-8.3704,-8.378,-8.3779,-8.3835,-8.3819,-8.3894,-8.3909,-8.3883,-8.394,-8.3908,-8.3966,-8.3947,-8.407,-8.4044,-8.4066,-8.4059,-8.4154,-8.4145,-8.4465,-8.4505,-8.4207,-8.421,-8.4212,0,-8.3765,-8.3835,-8.3844,-8.388,-8.389,-8.3948,-8.3978,-8.3936,-8.397,-8.3995,-8.4048,-8.41,-8.4139,-8.4234,-8.422,-8.4264,-8.4239,-8.4348,-8.4245,-8.4258,-8.4241,-8.4237,-8.4244,-8.4368,-8.4372,-8.4375,-8.4377,0,-8.4019,-8.4004,-8.4051,-8.4096,-8.4135,-8.4167,-8.4194,-8.4226,-8.4184,-8.4226,-8.4285,-8.4316,-8.4376,-8.4429,-8.4467,-8.447,-8.4418,-8.441,-8.4434,-8.4449,-8.4459,-8.4456,-8.4123,-8.4403,-8.44,-8.4398,-8.4397,-8.4396,-8.4207,-8.4267,-8.4283,-8.4339,-8.4355,-8.4382,-8.4436,-8.4428,-8.4476,-8.4524,-8.4495,-8.4565,-8.4579,-8.4625,-8.4637,-8.4689,-8.4645,-8.468,-8.4688,-8.4698,-8.4711,-8.4451,-8.4696,-8.4695,-8.4694,-8.4694,-8.4693,0,-8.4458,-8.4466,-8.4518,-8.4559,-8.4603,-8.4551,-8.4578,-8.4618,-8.468,-8.4699,-8.474,-8.4809,-8.486,-8.4851,-8.4897,-8.4941,-8.4918,-8.4955,-8.4951,-8.4953,-8.4747,-8.4723,-8.4973,-8.4973,-8.4973,-8.4972,-8.4972,-8.4972,-8.4594,-8.4693,-8.468,-8.4786,-8.4791,-8.4861,-8.4881,-8.4905,-8.4921,-8.5,-8.5043,-8.5038,-8.5046,-8.5092,-8.5137,-8.5133,-8.5153,-8.5199,-8.5186,-8.4995,-8.4967,-8.4941,-8.4917,-8.5204,-8.5204,-8.5387,-8.5388,-8.539]}]]